History for Miami, FL

Thursday, November 8, 2012 — View Current Conditions

Jump to Data:

Date:
Airport Code:
Recently Viewed Airport Codes: KMIA
Daily Summary
  Actual Average Record
Temperature
Mean Temperature 64°F 76°F  
Max Temperature 70°F 83°F 87°F (1995)
Min Temperature 58°F 69°F 52°F (1923)
Degree Days
Heating Degree Days 1 0  
Month to date heating degree days 1 0  
Since 1 July heating degree days 1 0  
Cooling Degree Days 0 11  
Month to date cooling degree days 49 93  
Year to date cooling degree days 4288 4165  
Growing Degree Days 14 (Base 50)    
Moisture
Dew Point 43°F    
Average Humidity 50    
Maximum Humidity 72    
Minimum Humidity 28    
Precipitation
Precipitation 0.00 in 0.13 in 5.73 in (1993)
Month to date precipitation 0.00 1.08  
Year to date precipitation 85.93 57.67  
Snow
Snow 0.00 in in in ()
Month to date snowfall 0.0  
Since 1 July snowfall 0.0  
Since 1 September snowfall 0.0  
Snow Depth 0.00 in    
Sea Level Pressure
Sea Level Pressure 30.07 in    
Wind
Wind Speed 8 mph (NNW)    
Max Wind Speed 15 mph    
Max Gust Speed 23 mph    
Visibility 10 miles    
Events      
T = Trace of Precipitation, MM = Missing Value Source: NWS Daily Summary

Show full METARS

(help) - Comma Delimited File

Hourly Observations

Time(EST) Temperature Dew Point Humidity Sea Level Pressure Visibility Wind Direction Wind Speed Gust Speed Precipitation Events Conditions
12:53 AM 61.0°F 48.0°F 62% 30.00 in 10.0 miles NW 5.8 mph - N/A   Clear
1:53 AM 61.0°F 48.9°F 64% 29.99 in 10.0 miles NNW 4.6 mph - N/A   Mostly Cloudy
2:53 AM 60.1°F 48.9°F 67% 30.00 in 10.0 miles Calm Calm - N/A   Partly Cloudy
3:53 AM 59.0°F 50.0°F 72% 30.01 in 10.0 miles Calm Calm - N/A   Mostly Cloudy
4:53 AM 60.1°F 50.0°F 69% 30.01 in 10.0 miles Calm Calm - N/A   Overcast
5:53 AM 59.0°F 48.9°F 69% 30.04 in 10.0 miles Calm Calm - N/A   Clear
6:53 AM 59.0°F 48.0°F 67% 30.06 in 10.0 miles North 5.8 mph - N/A   Scattered Clouds
7:53 AM 61.0°F 48.0°F 62% 30.09 in 10.0 miles North 5.8 mph - N/A   Mostly Cloudy
8:53 AM 63.0°F 39.0°F 41% 30.11 in 10.0 miles North 10.4 mph 17.3 mph N/A   Scattered Clouds
9:53 AM 64.9°F 36.0°F 34% 30.12 in 10.0 miles NNW 11.5 mph 18.4 mph N/A   Partly Cloudy
10:53 AM 66.0°F 34.0°F 30% 30.13 in 10.0 miles NNW 15.0 mph 20.7 mph N/A   Partly Cloudy
11:53 AM 66.9°F 39.0°F 36% 30.10 in 10.0 miles NW 13.8 mph 19.6 mph N/A   Partly Cloudy
12:53 PM 69.1°F 37.9°F 32% 30.07 in 10.0 miles NNW 12.7 mph 21.9 mph N/A   Clear
1:53 PM 68.0°F 37.9°F 33% 30.07 in 10.0 miles NNW 13.8 mph 21.9 mph N/A   Clear
2:53 PM 69.1°F 36.0°F 30% 30.06 in 10.0 miles NNW 10.4 mph 19.6 mph N/A   Clear
3:53 PM 68.0°F 37.9°F 33% 30.06 in 10.0 miles NW 11.5 mph 17.3 mph N/A   Clear
4:53 PM 66.9°F 37.9°F 34% 30.07 in 10.0 miles Variable 5.8 mph - N/A   Clear
5:53 PM 64.9°F 37.0°F 36% 30.08 in 10.0 miles NNW 6.9 mph - N/A   Clear
6:53 PM 64.0°F 41.0°F 43% 30.09 in 10.0 miles NNW 6.9 mph - N/A   Clear
7:53 PM 63.0°F 42.1°F 46% 30.11 in 10.0 miles NNW 9.2 mph - N/A   Clear
8:53 PM 62.1°F 45.0°F 53% 30.12 in 10.0 miles NNW 4.6 mph - N/A   Clear
9:53 PM 62.1°F 46.0°F 56% 30.13 in 10.0 miles NNW 6.9 mph - N/A   Mostly Cloudy
10:53 PM 62.1°F 48.9°F 62% 30.13 in 10.0 miles NW 8.1 mph - N/A   Scattered Clouds
11:53 PM 61.0°F 46.9°F 60% 30.12 in 10.0 miles NW 11.5 mph 17.3 mph N/A   Mostly Cloudy